Location: ??????
(41.3164°N, 22.6615°E)
Time: 10:36:12
(UTC+00:00)

CZ-2C R/B - Pass Details

Date: 16 October 2021
Orbit: 387 x 574 km, 35.0° (Epoch: 08 December)

Event Time Altitude Azimuth Distance (km) Brightness Sun altitude
Rises 17:40:42 0° 239° (WSW) 2,352 5.3 -22.1°
Reaches altitude 10° 17:43:09 10° 224° (SW) 1,461 3.9 -22.6°
Enters shadow 17:44:22 17° 206° (SSW) 1,106 3.0 -22.8°
